| time (UTC) | temp F | wind direction | speed MPH | gust MPH | rain 1hr in | rain 24hr in | rain mn in | humidity % | barometer mb |
| 20260504222010 | 68 | 214 | 1.0 | 7.0 | 0.00 | 0.00 | 0.00 | 36 | 1004.2 |
| 20260504221510 | 68 | 219 | 2.0 | 7.0 | 0.00 | 0.00 | 0.00 | 36 | 1004.2 |
| 20260504221009 | 69 | 236 | 1.0 | 8.0 | 0.00 | 0.00 | 0.00 | 36 | 1004.2 |
| 20260504220504 | 69 | 216 | 1.0 | 8.0 | 0.00 | 0.00 | 0.00 | 35 | 1004.2 |
| 20260504220018 | 69 | 248 | 2.0 | 11.0 | 0.00 | 0.00 | 0.00 | 36 | 1004.2 |
| 20260504215507 | 69 | 255 | 7.0 | 11.0 | 0.00 | 0.00 | 0.00 | 34 | 1004.2 |
| 20260504215004 | 69 | 208 | 1.0 | 10.0 | 0.00 | 0.00 | 0.00 | 34 | 1004.2 |
| 20260504214515 | 69 | 292 | 4.0 | 14.0 | 0.00 | 0.00 | 0.00 | 35 | 1004.1 |
| 20260504214010 | 69 | 286 | 7.0 | 14.0 | 0.00 | 0.00 | 0.00 | 34 | 1004.2 |
| 20260504213505 | 69 | 281 | 6.0 | 15.0 | 0.00 | 0.00 | 0.00 | 35 | 1004.2 |
| 20260504213014 | 69 | 213 | 4.0 | 15.0 | 0.00 | 0.00 | 0.00 | 35 | 1004.1 |
| 20260504212509 | 69 | 244 | 3.0 | 15.0 | 0.00 | 0.00 | 0.00 | 36 | 1004.0 |
| 20260504212008 | 70 | 257 | 7.0 | 15.0 | 0.00 | 0.00 | 0.00 | 34 | 1004.2 |
| 20260504211518 | 70 | 227 | 3.0 | 8.0 | 0.00 | 0.00 | 0.00 | 35 | 1004.1 |
| 20260504211010 | 70 | 275 | 2.0 | 12.0 | 0.00 | 0.00 | 0.00 | 35 | 1004.0 |
| 20260504210507 | 70 | 262 | 3.0 | 15.0 | 0.00 | 0.00 | 0.00 | 35 | 1004.0 |
| 20260504210020 | 70 | 260 | 7.0 | 15.0 | 0.00 | 0.00 | 0.00 | 36 | 1004.0 |
| 20260504205510 | 69 | 255 | 3.0 | 9.0 | 0.00 | 0.00 | 0.00 | 38 | 1004.1 |
| 20260504205010 | 69 | 254 | 2.0 | 13.0 | 0.00 | 0.00 | 0.00 | 38 | 1004.1 |
| 20260504204517 | 69 | 236 | 1.0 | 13.0 | 0.00 | 0.00 | 0.00 | 37 | 1004.0 |
| 20260504204006 | 69 | 236 | 3.0 | 13.0 | 0.00 | 0.00 | 0.00 | 36 | 1004.1 |
| 20260504203503 | 70 | 200 | 3.0 | 9.0 | 0.00 | 0.00 | 0.00 | 37 | 1004.1 |
| 20260504203028 | 69 | 269 | 3.0 | 14.0 | 0.00 | 0.00 | 0.00 | 37 | 1004.1 |
| 20260504202513 | 69 | 242 | 3.0 | 14.0 | 0.00 | 0.00 | 0.00 | 37 | 1004.1 |
| 20260504202006 | 69 | 229 | 5.0 | 13.0 | 0.00 | 0.00 | 0.00 | 37 | 1004.2 |
| 20260504201521 | 69 | 232 | 4.0 | 13.0 | 0.00 | 0.00 | 0.00 | 38 | 1004.3 |
| 20260504201013 | 68 | 252 | 4.0 | 12.0 | 0.00 | 0.00 | 0.00 | 38 | 1004.4 |
| 20260504200509 | 67 | 236 | 6.0 | 18.0 | 0.00 | 0.00 | 0.00 | 38 | 1004.4 |
| 20260504200024 | 68 | 265 | 4.0 | 18.0 | 0.00 | 0.00 | 0.00 | 37 | 1004.4 |
| 20260504195510 | 68 | 266 | 4.0 | 16.0 | 0.00 | 0.00 | 0.00 | 36 | 1004.4 |
| 20260504195008 | 69 | 309 | 4.0 | 18.0 | 0.00 | 0.00 | 0.00 | 36 | 1004.5 |
| 20260504194533 | 69 | 247 | 5.0 | 18.0 | 0.00 | 0.00 | 0.00 | 36 | 1004.5 |
| 20260504194010 | 69 | 250 | 5.0 | 17.0 | 0.00 | 0.00 | 0.00 | 36 | 1004.5 |
| 20260504193507 | 70 | 257 | 6.0 | 12.0 | 0.00 | 0.00 | 0.00 | 37 | 1004.5 |
| 20260504193023 | 70 | 282 | 4.0 | 11.0 | 0.00 | 0.00 | 0.00 | 35 | 1004.4 |
| 20260504192506 | 70 | 187 | 1.0 | 9.0 | 0.00 | 0.00 | 0.00 | 38 | 1004.3 |
| 20260504192008 | 69 | 245 | 3.0 | 9.0 | 0.00 | 0.00 | 0.00 | 37 | 1004.3 |
| 20260504191528 | 69 | 205 | 4.0 | 9.0 | 0.00 | 0.00 | 0.00 | 40 | 1004.4 |
| 20260504191004 | 68 | 226 | 4.0 | 19.0 | 0.00 | 0.00 | 0.00 | 39 | 1004.4 |
| 20260504190508 | 68 | 53 | 3.0 | 19.0 | 0.00 | 0.00 | 0.00 | 40 | 1004.5 |
| 20260504190031 | 67 | 205 | 8.0 | 14.0 | 0.00 | 0.00 | 0.00 | 40 | 1004.5 |
| 20260504185509 | 65 | 264 | 3.0 | 6.0 | 0.00 | 0.00 | 0.00 | 42 | 1004.5 |
| 20260504185009 | 64 | 352 | 2.0 | 7.0 | 0.00 | 0.00 | 0.00 | 46 | 1004.5 |
| 20260504184533 | 63 | 179 | 1.0 | 13.0 | 0.00 | 0.00 | 0.00 | 42 | 1004.5 |
| 20260504184006 | 63 | 252 | 4.0 | 13.0 | 0.00 | 0.00 | 0.00 | 42 | 1004.6 |
| 20260504183510 | 64 | 215 | 2.0 | 10.0 | 0.00 | 0.00 | 0.00 | 40 | 1004.7 |
| 20260504183028 | 64 | 244 | 2.0 | 10.0 | 0.00 | 0.00 | 0.00 | 40 | 1004.6 |
| 20260504182506 | 64 | 225 | 3.0 | 9.0 | 0.00 | 0.00 | 0.00 | 40 | 1004.5 |
| 20260504182011 | 64 | 115 | 2.0 | 13.0 | 0.00 | 0.00 | 0.00 | 39 | 1004.5 |
| 20260504181525 | 64 | 274 | 3.0 | 14.0 | 0.00 | 0.00 | 0.00 | 39 | 1004.5 |
| 20260504181010 | 65 | 300 | 4.0 | 16.0 | 0.00 | 0.00 | 0.00 | 38 | 1004.5 |
| 20260504180508 | 65 | 246 | 5.0 | 16.0 | 0.00 | 0.00 | 0.00 | 38 | 1004.5 |
| 20260504180033 | 65 | 259 | 3.0 | 15.0 | 0.00 | 0.00 | 0.00 | 39 | 1004.5 |
| 20260504175507 | 65 | 228 | 5.0 | 13.0 | 0.00 | 0.00 | 0.00 | 39 | 1004.5 |
| 20260504175010 | 65 | 257 | 4.0 | 12.0 | 0.00 | 0.00 | 0.00 | 38 | 1004.5 |
| 20260504174528 | 65 | 230 | 4.0 | 21.0 | 0.00 | 0.00 | 0.00 | 38 | 1004.5 |
| 20260504174010 | 65 | 185 | 2.0 | 21.0 | 0.00 | 0.00 | 0.00 | 38 | 1004.4 |
| 20260504173508 | 65 | 204 | 5.0 | 15.0 | 0.00 | 0.00 | 0.00 | 38 | 1004.4 |
| 20260504173028 | 65 | 299 | 4.0 | 18.0 | 0.00 | 0.00 | 0.00 | 38 | 1004.4 |
| 20260504172508 | 65 | 207 | 5.0 | 19.0 | 0.00 | 0.00 | 0.00 | 35 | 1004.3 |
| 20260504172011 | 66 | 199 | 7.0 | 22.0 | 0.00 | 0.00 | 0.00 | 34 | 1004.3 |
| 20260504171527 | 66 | 216 | 4.0 | 22.0 | 0.00 | 0.00 | 0.00 | 34 | 1004.3 |
| 20260504171012 | 67 | 297 | 10.0 | 21.0 | 0.00 | 0.00 | 0.00 | 34 | 1004.1 |
| 20260504170511 | 67 | 238 | 8.0 | 18.0 | 0.00 | 0.00 | 0.00 | 36 | 1004.1 |
| 20260504151010 | 62 | 243 | 8.0 | 12.0 | 0.00 | 0.00 | 0.00 | 48 | 1005.5 |
| 20260504150510 | 61 | 229 | 7.0 | 12.0 | 0.00 | 0.00 | 0.00 | 49 | 1005.6 |
| 20260504141015 | 58 | 257 | 5.0 | 12.0 | 0.00 | 0.00 | 0.00 | 53 | 1006.5 |
| 20260504140506 | 58 | 214 | 6.0 | 11.0 | 0.00 | 0.00 | 0.00 | 55 | 1006.6 |
| 20260504130512 | 53 | 217 | 5.0 | 17.0 | 0.00 | 0.00 | 0.00 | 61 | 1007.1 |
| 20260504110509 | 44 | 215 | 6.0 | 12.0 | 0.00 | 0.01 | 0.00 | 65 | 1007.6 |
| 20260504100510 | 41 | 253 | 1.0 | 6.0 | 0.00 | 0.01 | 0.00 | 68 | 1007.4 |
| 20260504082008 | 38 | 268 | 2.0 | 10.0 | 0.00 | 0.01 | 0.00 | 73 | 1007.3 |
| 20260504081525 | 38 | 241 | 3.0 | 10.0 | 0.00 | 0.01 | 0.00 | 75 | 1007.3 |
| 20260504081003 | 37 | 260 | 1.0 | 8.0 | 0.00 | 0.01 | 0.00 | 75 | 1007.3 |
| 20260504080509 | 37 | 230 | 3.0 | 8.0 | 0.00 | 0.01 | 0.00 | 75 | 1007.3 |
| 20260504050514 | 33 | 240 | 0.0 | 4.0 | 0.00 | 0.01 | 0.00 | 81 | 1007.0 |
| 20260504050016 | 33 | 240 | 1.0 | 4.0 | 0.00 | 0.01 | 0.00 | 81 | 1007.0 |
| 20260504045509 | 34 | 275 | 2.0 | 6.0 | 0.00 | 0.01 | 0.00 | 80 | 1007.0 |
| 20260504045010 | 34 | 243 | 3.0 | 6.0 | 0.00 | 0.01 | 0.00 | 81 | 1007.1 |
| 20260504044519 | 34 | 244 | 2.0 | 3.0 | 0.00 | 0.01 | 0.00 | 80 | 1007.1 |
| 20260504044008 | 34 | 237 | 1.0 | 3.0 | 0.00 | 0.01 | 0.00 | 79 | 1007.1 |
| 20260504043510 | 34 | 240 | 1.0 | 3.0 | 0.00 | 0.01 | 0.00 | 79 | 1007.1 |
| 20260504043020 | 34 | 234 | 1.0 | 3.0 | 0.00 | 0.01 | 0.00 | 79 | 1007.2 |
| 20260504042507 | 35 | 238 | 2.0 | 3.0 | 0.00 | 0.01 | 0.00 | 79 | 1007.1 |
| 20260504042011 | 35 | 236 | 1.0 | 3.0 | 0.00 | 0.01 | 0.00 | 78 | 1007.1 |
| 20260504041519 | 35 | 260 | 0.0 | 2.0 | 0.00 | 0.01 | 0.00 | 78 | 1007.1 |
| 20260504041008 | 35 | 233 | 1.0 | 2.0 | 0.00 | 0.01 | 0.00 | 76 | 1007.1 |
| 20260504040511 | 36 | 236 | 0.0 | 2.0 | 0.00 | 0.02 | 0.00 | 76 | 1007.1 |
| 20260504040019 | 36 | 257 | 0.0 | 2.0 | 0.00 | 0.02 | 0.00 | 77 | 1007.0 |
| 20260504035510 | 36 | 246 | 1.0 | 2.0 | 0.00 | 0.02 | 0.02 | 75 | 1007.1 |
| 20260504035007 | 37 | 246 | 0.0 | 1.0 | 0.00 | 0.02 | 0.02 | 74 | 1007.0 |
| 20260504034535 | 37 | 245 | 0.0 | 2.0 | 0.00 | 0.02 | 0.02 | 72 | 1006.9 |
| 20260504034009 | 37 | 245 | 0.0 | 3.0 | 0.00 | 0.02 | 0.02 | 71 | 1006.9 |
| 20260504033507 | 37 | 246 | 1.0 | 3.0 | 0.00 | 0.02 | 0.02 | 71 | 1007.0 |
| 20260504033027 | 38 | 217 | 1.0 | 3.0 | 0.00 | 0.02 | 0.02 | 71 | 1007.0 |
| 20260504032510 | 38 | 222 | 0.0 | 3.0 | 0.00 | 0.02 | 0.02 | 71 | 1007.0 |
| 20260504032010 | 38 | 235 | 0.0 | 3.0 | 0.00 | 0.02 | 0.02 | 71 | 1007.0 |
| 20260504031524 | 38 | 237 | 1.0 | 3.0 | 0.00 | 0.02 | 0.02 | 72 | 1006.9 |
| 20260504031011 | 38 | 219 | 1.0 | 3.0 | 0.00 | 0.02 | 0.02 | 72 | 1006.8 |
| 20260504030510 | 38 | 217 | 1.0 | 6.0 | 0.00 | 0.02 | 0.02 | 72 | 1006.9 |
| 20260504030034 | 38 | 227 | 2.0 | 6.0 | 0.00 | 0.02 | 0.02 | 73 | 1006.9 |
| 20260504025508 | 38 | 234 | 1.0 | 3.0 | 0.00 | 0.02 | 0.02 | 71 | 1006.8 |
| 20260504025007 | 38 | 224 | 2.0 | 3.0 | 0.00 | 0.02 | 0.02 | 70 | 1006.8 |
| 20260504024523 | 38 | 225 | 1.0 | 3.0 | 0.00 | 0.02 | 0.02 | 69 | 1006.8 |
| 20260504024013 | 38 | 234 | 1.0 | 3.0 | 0.00 | 0.02 | 0.02 | 69 | 1006.8 |
| 20260504023507 | 39 | 245 | 1.0 | 3.0 | 0.00 | 0.02 | 0.02 | 69 | 1006.8 |
| 20260504023024 | 39 | 245 | 1.0 | 3.0 | 0.00 | 0.02 | 0.02 | 68 | 1006.6 |
| 20260504022508 | 39 | 235 | 1.0 | 4.0 | 0.00 | 0.02 | 0.02 | 68 | 1006.7 |
| 20260504022009 | 39 | 252 | 1.0 | 4.0 | 0.00 | 0.02 | 0.02 | 68 | 1006.7 |
| 20260504021524 | 39 | 218 | 1.0 | 3.0 | 0.00 | 0.02 | 0.02 | 67 | 1006.7 |
| 20260504021009 | 39 | 243 | 1.0 | 3.0 | 0.00 | 0.02 | 0.02 | 66 | 1006.8 |
| 20260504020506 | 40 | 242 | 1.0 | 3.0 | 0.00 | 0.02 | 0.02 | 67 | 1006.8 |
| 20260504020025 | 40 | 246 | 0.0 | 5.0 | 0.00 | 0.02 | 0.02 | 65 | 1006.8 |
| 20260504015511 | 40 | 246 | 1.0 | 5.0 | 0.00 | 0.02 | 0.02 | 66 | 1006.7 |
| 20260504015012 | 40 | 246 | 1.0 | 4.0 | 0.00 | 0.02 | 0.02 | 66 | 1006.7 |
| 20260504014531 | 40 | 250 | 1.0 | 4.0 | 0.00 | 0.02 | 0.02 | 65 | 1006.7 |
| 20260504014010 | 41 | 234 | 1.0 | 4.0 | 0.00 | 0.03 | 0.02 | 64 | 1006.7 |
| 20260504013507 | 41 | 245 | 1.0 | 4.0 | 0.00 | 0.03 | 0.02 | 64 | 1006.7 |
| 20260504013026 | 41 | 249 | 1.0 | 4.0 | 0.00 | 0.03 | 0.02 | 63 | 1006.6 |
| 20260504012507 | 41 | 246 | 1.0 | 3.0 | 0.00 | 0.03 | 0.02 | 63 | 1006.6 |
| 20260504012010 | 42 | 232 | 0.0 | 4.0 | 0.00 | 0.03 | 0.02 | 60 | 1006.5 |
| 20260504011526 | 42 | 277 | 0.0 | 4.0 | 0.00 | 0.04 | 0.02 | 60 | 1006.4 |
| 20260504011011 | 42 | 186 | 0.0 | 4.0 | 0.00 | 0.04 | 0.02 | 60 | 1006.3 |
| 20260504010512 | 42 | 248 | 0.0 | 3.0 | 0.00 | 0.04 | 0.02 | 60 | 1006.2 |
| 20260504010026 | 42 | 213 | 1.0 | 10.0 | 0.00 | 0.04 | 0.02 | 60 | 1006.1 |
| 20260504005508 | 42 | 259 | 2.0 | 10.0 | 0.00 | 0.05 | 0.02 | 59 | 1006.1 |
| 20260504005009 | 43 | 255 | 0.0 | 3.0 | 0.00 | 0.05 | 0.02 | 58 | 1006.1 |
| 20260504004529 | 43 | 276 | 0.0 | 3.0 | 0.00 | 0.06 | 0.02 | 58 | 1006.0 |
| 20260504004010 | 43 | 222 | 0.0 | 3.0 | 0.00 | 0.06 | 0.02 | 59 | 1005.9 |
| 20260504003510 | 44 | 254 | 1.0 | 3.0 | 0.00 | 0.06 | 0.02 | 59 | 1005.8 |
| 20260504003028 | 44 | 257 | 1.0 | 3.0 | 0.00 | 0.06 | 0.02 | 57 | 1005.7 |
| 20260504002508 | 44 | 254 | 0.0 | 7.0 | 0.00 | 0.06 | 0.02 | 57 | 1005.7 |
| 20260504002008 | 44 | 280 | 1.0 | 7.0 | 0.00 | 0.06 | 0.02 | 56 | 1005.6 |
| 20260504001527 | 45 | 250 | 1.0 | 4.0 | 0.00 | 0.06 | 0.02 | 56 | 1005.5 |
| 20260504001010 | 45 | 308 | 1.0 | 4.0 | 0.00 | 0.06 | 0.02 | 54 | 1005.4 |
| 20260504000510 | 45 | 296 | 0.0 | 3.0 | 0.00 | 0.06 | 0.02 | 53 | 1005.3 |
| 20260504000027 | 46 | 294 | 0.0 | 3.0 | 0.00 | 0.06 | 0.02 | 52 | 1005.2 |
| 20260503235507 | 46 | 284 | 1.0 | 5.0 | 0.00 | 0.07 | 0.02 | 52 | 1005.1 |
| 20260503235007 | 47 | 333 | 0.0 | 11.0 | 0.00 | 0.07 | 0.02 | 51 | 1005.0 |
| 20260503234532 | 47 | 311 | 2.0 | 11.0 | 0.00 | 0.07 | 0.02 | 50 | 1004.9 |
| 20260503234008 | 47 | 262 | 4.0 | 9.0 | 0.00 | 0.07 | 0.02 | 49 | 1004.9 |
| 20260503233508 | 47 | 338 | 3.0 | 10.0 | 0.00 | 0.07 | 0.02 | 50 | 1004.7 |
| 20260503233028 | 48 | 308 | 1.0 | 10.0 | 0.00 | 0.07 | 0.02 | 47 | 1004.7 |
| 20260503232509 | 48 | 334 | 3.0 | 11.0 | 0.00 | 0.07 | 0.02 | 46 | 1004.5 |
| 20260503232009 | 48 | 329 | 2.0 | 11.0 | 0.00 | 0.07 | 0.02 | 47 | 1004.4 |
| 20260503231542 | 48 | 338 | 2.0 | 8.0 | 0.00 | 0.07 | 0.02 | 46 | 1004.4 |
| 20260503231008 | 49 | 346 | 2.0 | 11.0 | 0.00 | 0.07 | 0.02 | 46 | 1004.3 |
| 20260503230509 | 49 | 321 | 2.0 | 11.0 | 0.00 | 0.07 | 0.02 | 44 | 1004.2 |
| 20260503230025 | 49 | 294 | 2.0 | 14.0 | 0.00 | 0.07 | 0.02 | 44 | 1004.2 |
| 20260503225509 | 49 | 59 | 3.0 | 14.0 | 0.00 | 0.07 | 0.02 | 44 | 1004.1 |
| 20260503225010 | 50 | 225 | 3.0 | 14.0 | 0.00 | 0.07 | 0.02 | 44 | 1003.9 |
| 20260503224530 | 50 | 20 | 4.0 | 17.0 | 0.00 | 0.07 | 0.02 | 43 | 1003.9 |
| 20260503224007 | 50 | 317 | 6.0 | 17.0 | 0.00 | 0.07 | 0.02 | 41 | 1003.8 |
| 20260503223509 | 51 | 231 | 2.0 | 15.0 | 0.00 | 0.07 | 0.02 | 43 | 1003.7 |
| 20260503223029 | 51 | 339 | 4.0 | 15.0 | 0.00 | 0.07 | 0.02 | 44 | 1003.5 |
| 20260503222503 | 51 | 346 | 4.0 | 9.0 | 0.00 | 0.07 | 0.02 | 44 | 1003.5 |